Year,Month,Day,Hour,Minute,Value (Times are PST for temperature in C)
2016,06,15,00,00,10.00
2016,06,15,00,01,10.00
2016,06,15,00,02,10.00
2016,06,15,00,03,10.00
2016,06,15,00,04,10.00
2016,06,15,00,05,10.00
2016,06,15,00,06,10.00
2016,06,15,00,07,10.00
2016,06,15,00,08,10.00
2016,06,15,00,09,10.00
2016,06,15,00,10,10.00
2016,06,15,00,11,10.10
2016,06,15,00,12,10.10
2016,06,15,00,13,10.10
2016,06,15,00,14,10.10
2016,06,15,00,15,10.10
2016,06,15,00,16,10.10
2016,06,15,00,17,10.10
2016,06,15,00,18,10.10
2016,06,15,00,19,10.10
2016,06,15,00,20,10.10
2016,06,15,00,21,10.10
2016,06,15,00,22,10.10
2016,06,15,00,23,10.10
2016,06,15,00,24,10.10
2016,06,15,00,25,10.10
2016,06,15,00,26,10.10
2016,06,15,00,27,10.10
2016,06,15,00,28,10.10
2016,06,15,00,29,10.10
2016,06,15,00,30,10.00
2016,06,15,00,31,10.10
2016,06,15,00,32,10.00
2016,06,15,00,33,10.00
2016,06,15,00,34,10.00
2016,06,15,00,35,10.00
2016,06,15,00,36,10.00
2016,06,15,00,37,10.10
2016,06,15,00,38,10.10
2016,06,15,00,39,10.10
2016,06,15,00,40,10.10
2016,06,15,00,41,10.10
2016,06,15,00,42,10.10
2016,06,15,00,43,10.10
2016,06,15,00,44,10.10
2016,06,15,00,45,10.10
2016,06,15,00,46,10.10
2016,06,15,00,47,10.10
2016,06,15,00,48,10.10
2016,06,15,00,49,10.10
2016,06,15,00,50,10.10
2016,06,15,00,51,10.10
2016,06,15,00,52,10.10
2016,06,15,00,53,10.10
2016,06,15,00,54,10.10
2016,06,15,00,55,10.10
2016,06,15,00,56,10.10
2016,06,15,00,57,10.10
2016,06,15,00,58,10.20
2016,06,15,00,59,10.20
2016,06,15,01,00,10.20
2016,06,15,01,01,10.20
2016,06,15,01,02,10.20
2016,06,15,01,03,10.20
2016,06,15,01,04,10.20
2016,06,15,01,05,10.20
2016,06,15,01,06,10.20
2016,06,15,01,07,10.20
2016,06,15,01,08,10.20
2016,06,15,01,09,10.20
2016,06,15,01,10,10.20
2016,06,15,01,11,10.20
2016,06,15,01,12,10.20
2016,06,15,01,13,10.20
2016,06,15,01,14,10.20
2016,06,15,01,15,10.20
2016,06,15,01,16,10.20
2016,06,15,01,17,10.20
2016,06,15,01,18,10.20
2016,06,15,01,19,10.20
2016,06,15,01,20,10.20
2016,06,15,01,21,10.20
2016,06,15,01,22,10.20
2016,06,15,01,23,10.20
2016,06,15,01,24,10.20
2016,06,15,01,25,10.20
2016,06,15,01,26,10.20
2016,06,15,01,27,10.20
2016,06,15,01,28,10.20
2016,06,15,01,29,10.20
2016,06,15,01,30,10.20
2016,06,15,01,31,10.30
2016,06,15,01,32,10.30
2016,06,15,01,33,10.20
2016,06,15,01,34,10.30
2016,06,15,01,35,10.30
2016,06,15,01,36,10.30
2016,06,15,01,37,10.30
2016,06,15,01,38,10.30
2016,06,15,01,39,10.30
2016,06,15,01,40,10.30
2016,06,15,01,41,10.30
2016,06,15,01,42,10.20
2016,06,15,01,43,10.20
2016,06,15,01,44,10.20
2016,06,15,01,45,10.20
2016,06,15,01,46,10.20
2016,06,15,01,47,10.20
2016,06,15,01,48,10.20
2016,06,15,01,49,10.20
2016,06,15,01,50,10.20
2016,06,15,01,51,10.20
2016,06,15,01,52,10.20
2016,06,15,01,53,10.20
2016,06,15,01,54,10.20
2016,06,15,01,55,10.20
2016,06,15,01,56,10.20
2016,06,15,01,57,10.20
2016,06,15,01,58,10.20
2016,06,15,01,59,10.20
2016,06,15,02,00,10.10
2016,06,15,02,01,10.10
2016,06,15,02,02,10.10
2016,06,15,02,03,10.20
2016,06,15,02,04,10.20
2016,06,15,02,05,10.20
2016,06,15,02,06,10.20
2016,06,15,02,07,10.20
2016,06,15,02,08,10.20
2016,06,15,02,09,10.20
2016,06,15,02,10,10.20
2016,06,15,02,11,10.20
2016,06,15,02,12,10.20
2016,06,15,02,13,10.20
2016,06,15,02,14,10.20
2016,06,15,02,15,10.20
2016,06,15,02,16,10.20
2016,06,15,02,17,10.20
2016,06,15,02,18,10.20
2016,06,15,02,19,10.30
2016,06,15,02,20,10.20
2016,06,15,02,21,10.20
2016,06,15,02,22,10.20
2016,06,15,02,23,10.20
2016,06,15,02,24,10.20
2016,06,15,02,25,10.10
2016,06,15,02,26,10.10
2016,06,15,02,27,10.10
2016,06,15,02,28,10.00
2016,06,15,02,29,10.00
2016,06,15,02,30,10.00
2016,06,15,02,31,9.90
2016,06,15,02,32,9.90
2016,06,15,02,33,9.90
2016,06,15,02,34,9.90
2016,06,15,02,35,9.90
2016,06,15,02,36,9.90
2016,06,15,02,37,9.90
2016,06,15,02,38,9.80
2016,06,15,02,39,9.80
2016,06,15,02,40,9.80
2016,06,15,02,41,9.80
2016,06,15,02,42,9.80
2016,06,15,02,43,9.80
2016,06,15,02,44,9.80
2016,06,15,02,45,9.80
2016,06,15,02,46,9.80
2016,06,15,02,47,9.80
2016,06,15,02,48,9.80
2016,06,15,02,49,9.80
2016,06,15,02,50,9.80
2016,06,15,02,51,9.80
2016,06,15,02,52,9.80
2016,06,15,02,53,9.80
2016,06,15,02,54,9.80
2016,06,15,02,55,9.80
2016,06,15,02,56,9.80
2016,06,15,02,57,9.90
2016,06,15,02,58,9.90
2016,06,15,02,59,9.90
2016,06,15,03,00,9.90
2016,06,15,03,01,9.90
2016,06,15,03,02,9.80
2016,06,15,03,03,9.80
2016,06,15,03,04,9.90
2016,06,15,03,05,9.90
2016,06,15,03,06,9.90
2016,06,15,03,07,9.90
2016,06,15,03,08,9.80
2016,06,15,03,09,9.80
2016,06,15,03,10,9.80
2016,06,15,03,11,9.80
2016,06,15,03,12,9.80
2016,06,15,03,13,9.80
2016,06,15,03,14,9.80
2016,06,15,03,15,9.80
2016,06,15,03,16,9.80
2016,06,15,03,17,9.80
2016,06,15,03,18,9.80
2016,06,15,03,19,9.70
2016,06,15,03,20,9.60
2016,06,15,03,21,9.60
2016,06,15,03,22,9.50
2016,06,15,03,23,9.40
2016,06,15,03,24,9.40
2016,06,15,03,25,9.30
2016,06,15,03,26,9.30
2016,06,15,03,27,9.30
2016,06,15,03,28,9.30
2016,06,15,03,29,9.40
2016,06,15,03,30,9.40
2016,06,15,03,31,9.40
2016,06,15,03,32,9.40
2016,06,15,03,33,9.50
2016,06,15,03,34,9.50
2016,06,15,03,35,9.40
2016,06,15,03,36,9.40
2016,06,15,03,37,9.40
2016,06,15,03,38,9.30
2016,06,15,03,39,9.30
2016,06,15,03,40,9.40
2016,06,15,03,41,9.40
2016,06,15,03,42,9.40
2016,06,15,03,43,9.40
2016,06,15,03,44,9.40
2016,06,15,03,45,9.40
2016,06,15,03,46,9.30
2016,06,15,03,47,9.30
2016,06,15,03,48,9.30
2016,06,15,03,49,9.30
2016,06,15,03,50,9.20
2016,06,15,03,51,9.20
2016,06,15,03,52,9.20
2016,06,15,03,53,9.20
2016,06,15,03,54,9.20
2016,06,15,03,55,9.20
2016,06,15,03,56,9.20
2016,06,15,03,57,9.10
2016,06,15,03,58,9.10
2016,06,15,03,59,9.10
2016,06,15,04,00,9.10
2016,06,15,04,01,9.10
2016,06,15,04,02,9.10
2016,06,15,04,03,9.10
2016,06,15,04,04,9.10
2016,06,15,04,05,9.10
2016,06,15,04,06,9.10
2016,06,15,04,07,9.00
2016,06,15,04,08,9.00
2016,06,15,04,09,9.00
2016,06,15,04,10,8.90
2016,06,15,04,11,8.90
2016,06,15,04,12,8.90
2016,06,15,04,13,8.90
2016,06,15,04,14,8.90
2016,06,15,04,15,8.90
2016,06,15,04,16,8.90
2016,06,15,04,17,8.90
2016,06,15,04,18,8.80
2016,06,15,04,19,8.80
2016,06,15,04,20,8.80
2016,06,15,04,21,8.80
2016,06,15,04,22,8.80
2016,06,15,04,23,8.70
2016,06,15,04,24,8.70
2016,06,15,04,25,8.70
2016,06,15,04,26,8.60
2016,06,15,04,27,8.60
2016,06,15,04,28,8.60
2016,06,15,04,29,8.60
2016,06,15,04,30,8.50
2016,06,15,04,31,8.50
2016,06,15,04,32,8.40
2016,06,15,04,33,8.40
2016,06,15,04,34,8.40
2016,06,15,04,35,8.40
2016,06,15,04,36,8.40
2016,06,15,04,37,8.30
2016,06,15,04,38,8.30
2016,06,15,04,39,8.30
2016,06,15,04,40,8.30
2016,06,15,04,41,8.30
2016,06,15,04,42,8.30
2016,06,15,04,43,8.30
2016,06,15,04,44,8.30
2016,06,15,04,45,8.30
2016,06,15,04,46,8.30
2016,06,15,04,47,8.30
2016,06,15,04,48,8.30
2016,06,15,04,49,8.30
2016,06,15,04,50,8.30
2016,06,15,04,51,8.40
2016,06,15,04,52,8.40
2016,06,15,04,53,8.40
2016,06,15,04,54,8.40
2016,06,15,04,55,8.40
2016,06,15,04,56,8.40
2016,06,15,04,57,8.40
2016,06,15,04,58,8.40
2016,06,15,04,59,8.40
2016,06,15,05,00,8.40
2016,06,15,05,01,8.40
2016,06,15,05,02,8.40
2016,06,15,05,03,8.30
2016,06,15,05,04,8.30
2016,06,15,05,05,8.30
2016,06,15,05,06,8.30
2016,06,15,05,07,8.30
2016,06,15,05,08,8.30
2016,06,15,05,09,8.30
2016,06,15,05,10,8.30
2016,06,15,05,11,8.30
2016,06,15,05,12,8.30
2016,06,15,05,13,8.30
2016,06,15,05,14,8.30
2016,06,15,05,15,8.30
2016,06,15,05,16,8.30
2016,06,15,05,17,8.30
2016,06,15,05,18,8.30
2016,06,15,05,19,8.30
2016,06,15,05,20,8.30
2016,06,15,05,21,8.30
2016,06,15,05,22,8.30
2016,06,15,05,23,8.30
2016,06,15,05,24,8.30
2016,06,15,05,25,8.30
2016,06,15,05,26,8.30
2016,06,15,05,27,8.30
2016,06,15,05,28,8.30
2016,06,15,05,29,8.30
2016,06,15,05,30,8.30
2016,06,15,05,31,8.30
2016,06,15,05,32,8.30
2016,06,15,05,33,8.30
2016,06,15,05,34,8.30
2016,06,15,05,35,8.30
2016,06,15,05,36,8.30
2016,06,15,05,37,8.40
2016,06,15,05,38,8.40
2016,06,15,05,39,8.40
2016,06,15,05,40,8.40
2016,06,15,05,41,8.40
2016,06,15,05,42,8.40
2016,06,15,05,43,8.40
2016,06,15,05,44,8.40
2016,06,15,05,45,8.40
2016,06,15,05,46,8.40
2016,06,15,05,47,8.40
2016,06,15,05,48,8.40
2016,06,15,05,49,8.40
2016,06,15,05,50,8.40
2016,06,15,05,51,8.40
2016,06,15,05,52,8.50
2016,06,15,05,53,8.50
2016,06,15,05,54,8.50
2016,06,15,05,55,8.50
2016,06,15,05,56,8.50
2016,06,15,05,57,8.50
2016,06,15,05,58,8.50
2016,06,15,05,59,8.50
2016,06,15,06,00,8.50
2016,06,15,06,01,8.50
2016,06,15,06,02,8.50
2016,06,15,06,03,8.50
2016,06,15,06,04,8.50
2016,06,15,06,05,8.50
2016,06,15,06,06,8.40
2016,06,15,06,07,8.40
2016,06,15,06,08,8.40
2016,06,15,06,09,8.40
2016,06,15,06,10,8.40
2016,06,15,06,11,8.50
2016,06,15,06,12,8.50
2016,06,15,06,13,8.40
2016,06,15,06,14,8.40
2016,06,15,06,15,8.40
2016,06,15,06,16,8.40
2016,06,15,06,17,8.40
2016,06,15,06,18,8.40
2016,06,15,06,19,8.40
2016,06,15,06,20,8.50
2016,06,15,06,21,8.50
2016,06,15,06,22,8.50
2016,06,15,06,23,8.50
2016,06,15,06,24,8.50
2016,06,15,06,25,8.50
2016,06,15,06,26,8.50
2016,06,15,06,27,8.50
2016,06,15,06,28,8.50
2016,06,15,06,29,8.50
2016,06,15,06,30,8.50
2016,06,15,06,31,8.50
2016,06,15,06,32,8.50
2016,06,15,06,33,8.40
2016,06,15,06,34,8.40
2016,06,15,06,35,8.40
2016,06,15,06,36,8.40
2016,06,15,06,37,8.40
2016,06,15,06,38,8.40
2016,06,15,06,39,8.40
2016,06,15,06,40,8.40
2016,06,15,06,41,8.40
2016,06,15,06,42,8.40
2016,06,15,06,43,8.40
2016,06,15,06,44,8.40
2016,06,15,06,45,8.40
2016,06,15,06,46,8.40
2016,06,15,06,47,8.40
2016,06,15,06,48,8.40
2016,06,15,06,49,8.40
2016,06,15,06,50,8.30
2016,06,15,06,51,8.30
2016,06,15,06,52,8.30
2016,06,15,06,53,8.30
2016,06,15,06,54,8.30
2016,06,15,06,55,8.30
2016,06,15,06,56,8.30
2016,06,15,06,57,8.30
2016,06,15,06,58,8.30
2016,06,15,06,59,8.30
2016,06,15,07,00,8.30
2016,06,15,07,01,8.30
2016,06,15,07,02,8.30
2016,06,15,07,03,8.30
2016,06,15,07,04,8.30
2016,06,15,07,05,8.30
2016,06,15,07,06,8.30
2016,06,15,07,07,8.30
2016,06,15,07,08,8.30
2016,06,15,07,09,8.40
2016,06,15,07,10,8.40
2016,06,15,07,11,8.40
2016,06,15,07,12,8.40
2016,06,15,07,13,8.40
2016,06,15,07,14,8.40
2016,06,15,07,15,8.40
2016,06,15,07,16,8.40
2016,06,15,07,17,8.50
2016,06,15,07,18,8.50
2016,06,15,07,19,8.50
2016,06,15,07,20,8.50
2016,06,15,07,21,8.50
2016,06,15,07,22,8.50
2016,06,15,07,23,8.50
2016,06,15,07,24,8.40
2016,06,15,07,25,8.40
2016,06,15,07,26,8.50
2016,06,15,07,27,8.50
2016,06,15,07,28,8.50
2016,06,15,07,29,8.50
2016,06,15,07,30,8.50
2016,06,15,07,31,8.40
2016,06,15,07,32,8.40
2016,06,15,07,33,8.50
2016,06,15,07,34,8.50
2016,06,15,07,35,8.50
2016,06,15,07,36,8.50
2016,06,15,07,37,8.50
2016,06,15,07,38,8.50
2016,06,15,07,39,8.50
2016,06,15,07,40,8.50
2016,06,15,07,41,8.50
2016,06,15,07,42,8.50
2016,06,15,07,43,8.50
2016,06,15,07,44,8.50
2016,06,15,07,45,8.50
2016,06,15,07,46,8.50
2016,06,15,07,47,8.50
2016,06,15,07,48,8.50
2016,06,15,07,49,8.60
2016,06,15,07,50,8.60
2016,06,15,07,51,8.60
2016,06,15,07,52,8.60
2016,06,15,07,53,8.60
2016,06,15,07,54,8.60
2016,06,15,07,55,8.60
2016,06,15,07,56,8.60
2016,06,15,07,57,8.60
2016,06,15,07,58,8.60
2016,06,15,07,59,8.60
2016,06,15,08,00,8.60
2016,06,15,08,01,8.60
2016,06,15,08,02,8.60
2016,06,15,08,03,8.60
2016,06,15,08,04,8.60
2016,06,15,08,05,8.60
2016,06,15,08,06,8.60
2016,06,15,08,07,8.60
2016,06,15,08,08,8.60
2016,06,15,08,09,8.60
2016,06,15,08,10,8.60
2016,06,15,08,11,8.60
2016,06,15,08,12,8.50
2016,06,15,08,13,8.50
2016,06,15,08,14,8.50
2016,06,15,08,15,8.50
2016,06,15,08,16,8.50
2016,06,15,08,17,8.60
2016,06,15,08,18,8.60
2016,06,15,08,19,8.60
2016,06,15,08,20,8.60
2016,06,15,08,21,8.60
2016,06,15,08,22,8.60
2016,06,15,08,23,8.60
2016,06,15,08,24,8.60
2016,06,15,08,25,8.60
2016,06,15,08,26,8.60
2016,06,15,08,27,8.70
2016,06,15,08,28,8.70
2016,06,15,08,29,8.70
2016,06,15,08,30,8.70
2016,06,15,08,31,8.80
2016,06,15,08,32,8.80
2016,06,15,08,33,8.80
2016,06,15,08,34,8.90
2016,06,15,08,35,8.90
2016,06,15,08,36,8.90
2016,06,15,08,37,9.00
2016,06,15,08,38,9.00
2016,06,15,08,39,9.00
2016,06,15,08,40,9.00
2016,06,15,08,41,9.10
2016,06,15,08,42,9.10
2016,06,15,08,43,9.10
2016,06,15,08,44,9.10
2016,06,15,08,45,9.20
2016,06,15,08,46,9.20
2016,06,15,08,47,9.20
2016,06,15,08,48,9.30
2016,06,15,08,49,9.30
2016,06,15,08,50,9.30
2016,06,15,08,51,9.30
2016,06,15,08,52,9.30
2016,06,15,08,53,9.30
2016,06,15,08,54,9.30
2016,06,15,08,55,9.30
2016,06,15,08,56,9.40
2016,06,15,08,57,9.40
2016,06,15,08,58,9.50
2016,06,15,08,59,9.60
2016,06,15,09,00,9.60
2016,06,15,09,01,9.70
2016,06,15,09,02,9.70
2016,06,15,09,03,9.70
2016,06,15,09,04,9.70
2016,06,15,09,05,9.60
2016,06,15,09,06,9.60
2016,06,15,09,07,9.60
2016,06,15,09,08,9.60
2016,06,15,09,09,9.60
2016,06,15,09,10,9.70
2016,06,15,09,11,9.70
2016,06,15,09,12,9.70
2016,06,15,09,13,9.70
2016,06,15,09,14,9.80
2016,06,15,09,15,9.80
2016,06,15,09,16,9.80
2016,06,15,09,17,9.70
2016,06,15,09,18,9.70
2016,06,15,09,19,9.70
2016,06,15,09,20,9.70
2016,06,15,09,21,9.70
2016,06,15,09,22,9.70
2016,06,15,09,23,9.70
2016,06,15,09,24,9.70
2016,06,15,09,25,9.80
2016,06,15,09,26,9.80
2016,06,15,09,27,9.80
2016,06,15,09,28,9.80
2016,06,15,09,29,9.80
2016,06,15,09,30,9.80
2016,06,15,09,31,9.80
2016,06,15,09,32,9.90
2016,06,15,09,33,9.90
2016,06,15,09,34,10.00
2016,06,15,09,35,10.00
2016,06,15,09,36,10.10
2016,06,15,09,37,10.20
2016,06,15,09,38,10.20
2016,06,15,09,39,10.30
2016,06,15,09,40,10.20
2016,06,15,09,41,10.20
2016,06,15,09,42,10.20
2016,06,15,09,43,10.30
2016,06,15,09,44,10.30
2016,06,15,09,45,10.40
2016,06,15,09,46,10.40
2016,06,15,09,47,10.40
2016,06,15,09,48,10.30
2016,06,15,09,49,10.30
2016,06,15,09,50,10.30
2016,06,15,09,51,10.30
2016,06,15,09,52,10.30
2016,06,15,09,53,10.30
2016,06,15,09,54,10.40
2016,06,15,09,55,10.30
2016,06,15,09,56,10.30
2016,06,15,09,57,10.30
2016,06,15,09,58,10.30
2016,06,15,09,59,10.30
2016,06,15,10,00,10.20
2016,06,15,10,01,10.20
2016,06,15,10,02,10.20
2016,06,15,10,03,10.20
2016,06,15,10,04,10.30
2016,06,15,10,05,10.30
2016,06,15,10,06,10.30
2016,06,15,10,07,10.30
2016,06,15,10,08,10.30
2016,06,15,10,09,10.30
2016,06,15,10,10,10.30
2016,06,15,10,11,10.30
2016,06,15,10,12,10.30
2016,06,15,10,13,10.20
2016,06,15,10,14,10.20
2016,06,15,10,15,10.20
2016,06,15,10,16,10.20
2016,06,15,10,17,10.20
2016,06,15,10,18,10.20
2016,06,15,10,19,10.20
2016,06,15,10,20,10.20
2016,06,15,10,21,10.20
2016,06,15,10,22,10.20
2016,06,15,10,23,10.20
2016,06,15,10,24,10.30
2016,06,15,10,25,10.30
2016,06,15,10,26,10.40
2016,06,15,10,27,10.40
2016,06,15,10,28,10.50
2016,06,15,10,29,10.50
2016,06,15,10,30,10.60
2016,06,15,10,31,10.60
2016,06,15,10,32,10.60
2016,06,15,10,33,10.60
2016,06,15,10,34,10.60
2016,06,15,10,35,10.60
2016,06,15,10,36,10.60
2016,06,15,10,37,10.60
2016,06,15,10,38,10.60
2016,06,15,10,39,10.60
2016,06,15,10,40,10.50
2016,06,15,10,41,10.50
2016,06,15,10,42,10.40
2016,06,15,10,43,10.40
2016,06,15,10,44,10.40
2016,06,15,10,45,10.40
2016,06,15,10,46,10.50
2016,06,15,10,47,10.50
2016,06,15,10,48,10.50
2016,06,15,10,49,10.50
2016,06,15,10,50,10.60
2016,06,15,10,51,10.60
2016,06,15,10,52,10.70
2016,06,15,10,53,10.70
2016,06,15,10,54,10.80
2016,06,15,10,55,10.80
2016,06,15,10,56,10.90
2016,06,15,10,57,10.90
2016,06,15,10,58,10.80
2016,06,15,10,59,10.80
2016,06,15,11,00,10.80
2016,06,15,11,01,10.80
2016,06,15,11,02,10.90
2016,06,15,11,03,11.00
2016,06,15,11,04,11.00
2016,06,15,11,05,11.00
2016,06,15,11,06,10.90
2016,06,15,11,07,10.90
2016,06,15,11,08,10.90
2016,06,15,11,09,11.00
2016,06,15,11,10,11.00
2016,06,15,11,11,11.10
2016,06,15,11,12,11.10
2016,06,15,11,13,11.20
2016,06,15,11,14,11.20
2016,06,15,11,15,11.20
2016,06,15,11,16,11.30
2016,06,15,11,17,11.40
2016,06,15,11,18,11.40
2016,06,15,11,19,11.40
2016,06,15,11,20,11.50
2016,06,15,11,21,11.60
2016,06,15,11,22,11.60
2016,06,15,11,23,11.70
2016,06,15,11,24,11.70
2016,06,15,11,25,11.70
2016,06,15,11,26,11.70
2016,06,15,11,27,11.80
2016,06,15,11,28,11.80
2016,06,15,11,29,11.80
2016,06,15,11,30,11.80
2016,06,15,11,31,11.80
2016,06,15,11,32,11.70
2016,06,15,11,33,11.70
2016,06,15,11,34,11.70
2016,06,15,11,35,11.60
2016,06,15,11,36,11.60
2016,06,15,11,37,11.60
2016,06,15,11,38,11.60
2016,06,15,11,39,11.60
2016,06,15,11,40,11.60
2016,06,15,11,41,11.70
2016,06,15,11,42,11.80
2016,06,15,11,43,11.80
2016,06,15,11,44,11.80
2016,06,15,11,45,11.70
2016,06,15,11,46,11.60
2016,06,15,11,47,11.60
2016,06,15,11,48,11.60
2016,06,15,11,49,11.50
2016,06,15,11,50,11.40
2016,06,15,11,51,11.40
2016,06,15,11,52,11.50
2016,06,15,11,53,11.50
2016,06,15,11,54,11.50
2016,06,15,11,55,11.60
2016,06,15,11,56,11.70
2016,06,15,11,57,11.70
2016,06,15,11,58,11.70
2016,06,15,11,59,11.70
2016,06,15,12,00,11.80
2016,06,15,12,01,11.80
2016,06,15,12,02,11.80
2016,06,15,12,03,11.80
2016,06,15,12,04,11.80
2016,06,15,12,05,11.80
2016,06,15,12,06,11.80
2016,06,15,12,07,11.80
2016,06,15,12,08,11.80
2016,06,15,12,09,11.90
2016,06,15,12,10,11.90
2016,06,15,12,11,11.90
2016,06,15,12,12,11.90
2016,06,15,12,13,12.00
2016,06,15,12,14,12.00
2016,06,15,12,15,12.00
2016,06,15,12,16,12.00
2016,06,15,12,17,12.10
2016,06,15,12,18,12.00
2016,06,15,12,19,12.00
2016,06,15,12,20,12.10
2016,06,15,12,21,12.00
2016,06,15,12,22,12.00
2016,06,15,12,23,12.00
2016,06,15,12,24,11.90
2016,06,15,12,25,11.90
2016,06,15,12,26,12.00
2016,06,15,12,27,12.10
2016,06,15,12,28,12.10
2016,06,15,12,29,12.20
2016,06,15,12,30,12.20
2016,06,15,12,31,12.30
2016,06,15,12,32,12.30
2016,06,15,12,33,12.40
2016,06,15,12,34,12.40
2016,06,15,12,35,12.50
2016,06,15,12,36,12.60
2016,06,15,12,37,12.60
2016,06,15,12,38,12.60
2016,06,15,12,39,12.70
2016,06,15,12,40,12.70
2016,06,15,12,41,12.80
2016,06,15,12,42,12.90
2016,06,15,12,43,12.90
2016,06,15,12,44,12.90
2016,06,15,12,45,13.00
2016,06,15,12,46,13.10
2016,06,15,12,47,13.10
2016,06,15,12,48,13.20
2016,06,15,12,49,13.20
2016,06,15,12,50,13.30
2016,06,15,12,51,13.30
2016,06,15,12,52,13.40
2016,06,15,12,53,13.40
2016,06,15,12,54,13.40
2016,06,15,12,55,13.20
2016,06,15,12,56,13.20
2016,06,15,12,57,13.10
2016,06,15,12,58,13.00
2016,06,15,12,59,12.90
2016,06,15,13,00,13.00
2016,06,15,13,01,13.00
2016,06,15,13,02,13.00
2016,06,15,13,03,13.10
2016,06,15,13,04,13.00
2016,06,15,13,05,12.90
2016,06,15,13,06,12.90
2016,06,15,13,07,13.00
2016,06,15,13,08,12.90
2016,06,15,13,09,13.00
2016,06,15,13,10,13.00
2016,06,15,13,11,13.10
2016,06,15,13,12,13.10
2016,06,15,13,13,13.10
2016,06,15,13,14,13.10
2016,06,15,13,15,13.10
2016,06,15,13,16,13.20
2016,06,15,13,17,13.30
2016,06,15,13,18,13.40
2016,06,15,13,19,13.50
2016,06,15,13,20,13.60
2016,06,15,13,21,13.60
2016,06,15,13,22,13.50
2016,06,15,13,23,13.40
2016,06,15,13,24,13.30
2016,06,15,13,25,13.30
2016,06,15,13,26,13.30
2016,06,15,13,27,13.30
2016,06,15,13,28,13.30
2016,06,15,13,29,13.30
2016,06,15,13,30,13.30
2016,06,15,13,31,13.30
2016,06,15,13,32,13.30
2016,06,15,13,33,13.40
2016,06,15,13,34,13.40
2016,06,15,13,35,13.40
2016,06,15,13,36,13.40
2016,06,15,13,37,13.50
2016,06,15,13,38,13.50
2016,06,15,13,39,13.60
2016,06,15,13,40,13.60
2016,06,15,13,41,13.50
2016,06,15,13,42,13.50
2016,06,15,13,43,13.50
2016,06,15,13,44,13.60
2016,06,15,13,45,13.50
2016,06,15,13,46,13.50
2016,06,15,13,47,13.50
2016,06,15,13,48,13.40
2016,06,15,13,49,13.40
2016,06,15,13,50,13.30
2016,06,15,13,51,13.30
2016,06,15,13,52,13.40
2016,06,15,13,53,13.40
2016,06,15,13,54,13.50
2016,06,15,13,55,13.50
2016,06,15,13,56,13.50
2016,06,15,13,57,13.60
2016,06,15,13,58,13.60
2016,06,15,13,59,13.70
2016,06,15,14,00,13.70
2016,06,15,14,01,13.60
2016,06,15,14,02,13.70
2016,06,15,14,03,13.60
2016,06,15,14,04,13.50
2016,06,15,14,05,13.50
2016,06,15,14,06,13.50
2016,06,15,14,07,13.50
2016,06,15,14,08,13.50
2016,06,15,14,09,13.50
2016,06,15,14,10,13.50
2016,06,15,14,11,13.50
2016,06,15,14,12,13.50
2016,06,15,14,13,13.60
2016,06,15,14,14,13.60
2016,06,15,14,15,13.60
2016,06,15,14,16,13.60
2016,06,15,14,17,13.60
2016,06,15,14,18,13.70
2016,06,15,14,19,13.70
2016,06,15,14,20,13.80
2016,06,15,14,21,13.80
2016,06,15,14,22,13.80
2016,06,15,14,23,13.70
2016,06,15,14,24,13.70
2016,06,15,14,25,13.70
2016,06,15,14,26,13.70
2016,06,15,14,27,13.70
2016,06,15,14,28,13.70
2016,06,15,14,29,13.60
2016,06,15,14,30,13.60
2016,06,15,14,31,13.60
2016,06,15,14,32,13.60
2016,06,15,14,33,13.60
2016,06,15,14,34,13.60
2016,06,15,14,35,13.60
2016,06,15,14,36,13.50
2016,06,15,14,37,13.60
2016,06,15,14,38,13.60
2016,06,15,14,39,13.60
2016,06,15,14,40,13.60
2016,06,15,14,41,13.60
2016,06,15,14,42,13.50
2016,06,15,14,43,13.50
2016,06,15,14,44,13.60
2016,06,15,14,45,13.60
2016,06,15,14,46,13.70
2016,06,15,14,47,13.70
2016,06,15,14,48,13.70
2016,06,15,14,49,13.60
2016,06,15,14,50,13.60
2016,06,15,14,51,13.60
2016,06,15,14,52,13.60
2016,06,15,14,53,13.60
2016,06,15,14,54,13.50
2016,06,15,14,55,13.50
2016,06,15,14,56,13.50
2016,06,15,14,57,13.50
2016,06,15,14,58,13.50
2016,06,15,14,59,13.50
2016,06,15,15,00,13.60
2016,06,15,15,01,13.60
2016,06,15,15,02,13.70
2016,06,15,15,03,13.70
2016,06,15,15,04,13.70
2016,06,15,15,05,13.70
2016,06,15,15,06,13.70
2016,06,15,15,07,13.70
2016,06,15,15,08,13.70
2016,06,15,15,09,13.80
2016,06,15,15,10,13.80
2016,06,15,15,11,13.80
2016,06,15,15,12,13.80
2016,06,15,15,13,13.80
2016,06,15,15,14,13.80
2016,06,15,15,15,13.90
2016,06,15,15,16,13.90
2016,06,15,15,17,13.90
2016,06,15,15,18,13.90
2016,06,15,15,19,13.90
2016,06,15,15,20,14.00
2016,06,15,15,21,14.10
2016,06,15,15,22,14.20
2016,06,15,15,23,14.20
2016,06,15,15,24,14.20
2016,06,15,15,25,14.20
2016,06,15,15,26,14.20
2016,06,15,15,27,14.20
2016,06,15,15,28,14.20
2016,06,15,15,29,14.20
2016,06,15,15,30,14.20
2016,06,15,15,31,14.20
2016,06,15,15,32,14.20
2016,06,15,15,33,14.10
2016,06,15,15,34,14.10
2016,06,15,15,35,14.10
2016,06,15,15,36,14.10
2016,06,15,15,37,14.10
2016,06,15,15,38,14.10
2016,06,15,15,39,14.10
2016,06,15,15,40,14.00
2016,06,15,15,41,14.00
2016,06,15,15,42,14.10
2016,06,15,15,43,14.10
2016,06,15,15,44,14.10
2016,06,15,15,45,14.10
2016,06,15,15,46,14.10
2016,06,15,15,47,14.10
2016,06,15,15,48,14.10
2016,06,15,15,49,14.10
2016,06,15,15,50,14.20
2016,06,15,15,51,14.20
2016,06,15,15,52,14.30
2016,06,15,15,53,14.30
2016,06,15,15,54,14.30
2016,06,15,15,55,14.20
2016,06,15,15,56,14.20
2016,06,15,15,57,14.30
2016,06,15,15,58,14.30
2016,06,15,15,59,14.30
2016,06,15,16,00,14.30
2016,06,15,16,01,14.30
2016,06,15,16,02,14.30
2016,06,15,16,03,14.30
2016,06,15,16,04,14.40
2016,06,15,16,05,14.50
2016,06,15,16,06,14.50
2016,06,15,16,07,14.50
2016,06,15,16,08,14.50
2016,06,15,16,09,14.50
2016,06,15,16,10,14.50
2016,06,15,16,11,14.50
2016,06,15,16,12,14.60
2016,06,15,16,13,14.60
2016,06,15,16,14,14.60
2016,06,15,16,15,14.60
2016,06,15,16,16,14.60
2016,06,15,16,17,14.50
2016,06,15,16,18,14.50
2016,06,15,16,19,14.40
2016,06,15,16,20,14.30
2016,06,15,16,21,14.20
2016,06,15,16,22,14.10
2016,06,15,16,23,14.00
2016,06,15,16,24,13.90
2016,06,15,16,25,13.90
2016,06,15,16,26,13.80
2016,06,15,16,27,13.80
2016,06,15,16,28,13.80
2016,06,15,16,29,13.80
2016,06,15,16,30,13.80
2016,06,15,16,31,13.80
2016,06,15,16,32,13.80
2016,06,15,16,33,13.80
2016,06,15,16,34,13.90
2016,06,15,16,35,13.90
2016,06,15,16,36,14.00
2016,06,15,16,37,14.10
2016,06,15,16,38,14.20
2016,06,15,16,39,14.20
2016,06,15,16,40,14.30
2016,06,15,16,41,14.30
2016,06,15,16,42,14.40
2016,06,15,16,43,14.50
2016,06,15,16,44,14.50
2016,06,15,16,45,14.60
2016,06,15,16,46,14.70
2016,06,15,16,47,14.80
2016,06,15,16,48,14.90
2016,06,15,16,49,15.20
2016,06,15,16,50,15.30
2016,06,15,16,51,15.30
2016,06,15,16,52,15.40
2016,06,15,16,53,15.50
2016,06,15,16,54,15.50
2016,06,15,16,55,15.50
2016,06,15,16,56,15.50
2016,06,15,16,57,15.50
2016,06,15,16,58,15.40
2016,06,15,16,59,15.40
2016,06,15,17,00,15.30
2016,06,15,17,01,15.30
2016,06,15,17,02,15.20
2016,06,15,17,03,15.20
2016,06,15,17,04,15.30
2016,06,15,17,05,15.30
2016,06,15,17,06,15.30
2016,06,15,17,07,15.30
2016,06,15,17,08,15.30
2016,06,15,17,09,15.30
2016,06,15,17,10,15.30
2016,06,15,17,11,15.30
2016,06,15,17,12,15.30
2016,06,15,17,13,15.40
2016,06,15,17,14,15.40
2016,06,15,17,15,15.40
2016,06,15,17,16,15.40
2016,06,15,17,17,15.30
2016,06,15,17,18,15.30
2016,06,15,17,19,15.40
2016,06,15,17,20,15.50
2016,06,15,17,21,15.60
2016,06,15,17,22,15.60
2016,06,15,17,23,15.70
2016,06,15,17,24,15.70
2016,06,15,17,25,15.70
2016,06,15,17,26,15.60
2016,06,15,17,27,15.50
2016,06,15,17,28,15.50
2016,06,15,17,29,15.50
2016,06,15,17,30,15.50
2016,06,15,17,31,15.50
2016,06,15,17,32,15.70
2016,06,15,17,33,15.80
2016,06,15,17,34,15.90
2016,06,15,17,35,16.00
2016,06,15,17,36,16.00
2016,06,15,17,37,15.90